Data supplied by UK-AIR on 31/3/2012
All Data GMT hour ending  NB:  Upto 30/08/2011 PM10 were measured with a Standard TEOM, from 01/01/2008 PM10 were measured with a VCM TEOM
Status: R =Ratified P=Provisional,P*=As supplied
,,York Fishergate,,,,,,,,,,,,,,,,,,,,,,,
Date,time,"PM<sub>10</sub> particulate matter (Hourly measured)",status,unit,"Nitric oxide",status,unit,"Nitrogen dioxide",status,unit,"Nitrogen oxides as nitrogen dioxide",status,unit,"Non-volatile PM<sub>10</sub> (Hourly measured)",status,unit,"Non-volatile PM<sub>2.5</sub> (Hourly measured)",status,unit,"PM<sub>2.5</sub> particulate matter (Hourly measured)",status,unit,"Volatile PM<sub>10</sub> (Hourly measured)",status,unit,"Volatile PM<sub>2.5</sub> (Hourly measured)",status,unit
 
01-01-2011,01:00,33,R,ugm-3 (GRAV EQ),50,R,ugm-3,52,R,ugm-3,128,R,ugm-3,,,,,,,,,,,,,,,
01-01-2011,02:00,20,R,ugm-3 (GRAV EQ),56,R,ugm-3,53,R,ugm-3,139,R,ugm-3,,,,,,,,,,,,,,,
01-01-2011,03:00,12,R,ugm-3 (GRAV EQ),40,R,ugm-3,48,R,ugm-3,109,R,ugm-3,,,,,,,,,,,,,,,
01-01-2011,04:00,8,R,ugm-3 (GRAV EQ),35,R,ugm-3,44,R,ugm-3,97,R,ugm-3,,,,,,,,,,,,,,,
01-01-2011,05:00,5,R,ugm-3 (GRAV EQ),34,R,ugm-3,48,R,ugm-3,99,R,ugm-3,,,,,,,,,,,,,,,
01-01-2011,06:00,5,R,ugm-3 (GRAV EQ),33,R,ugm-3,53,R,ugm-3,103,R,ugm-3,,,,,,,,,,,,,,,
01-01-2011,07:00,5,R,ugm-3 (GRAV EQ),28,R,ugm-3,44,R,ugm-3,86,R,ugm-3,,,,,,,,,,,,,,,
01-01-2011,08:00,7,R,ugm-3 (GRAV EQ),19,R,ugm-3,36,R,ugm-3,65,R,ugm-3,,,,,,,,,,,,,,,
01-01-2011,09:00,8,R,ugm-3 (GRAV EQ),14,R,ugm-3,31,R,ugm-3,52,R,ugm-3,,,,,,,,,,,,,,,
01-01-2011,10:00,16,R,ugm-3 (GRAV EQ),16,R,ugm-3,42,R,ugm-3,67,R,ugm-3,,,,,,,,,,,,,,,
01-01-2011,11:00,23,R,ugm-3 (GRAV EQ),18,R,ugm-3,42,R,ugm-3,69,R,ugm-3,,,,,,,,,,,,,,,
01-01-2011,12:00,23,R,ugm-3 (GRAV EQ),16,R,ugm-3,40,R,ugm-3,65,R,ugm-3,,,,,,,,,,,,,,,
01-01-2011,13:00,20,R,ugm-3 (GRAV EQ),14,R,ugm-3,36,R,ugm-3,57,R,ugm-3,,,,,,,,,,,,,,,
01-01-2011,14:00,21,R,ugm-3 (GRAV EQ),15,R,ugm-3,36,R,ugm-3,59,R,ugm-3,,,,,,,,,,,,,,,
01-01-2011,15:00,21,R,ugm-3 (GRAV EQ),23,R,ugm-3,46,R,ugm-3,80,R,ugm-3,,,,,,,,,,,,,,,
01-01-2011,16:00,25,R,ugm-3 (GRAV EQ),25,R,ugm-3,50,R,ugm-3,88,R,ugm-3,,,,,,,,,,,,,,,
01-01-2011,17:00,22,R,ugm-3 (GRAV EQ),24,R,ugm-3,46,R,ugm-3,82,R,ugm-3,,,,,,,,,,,,,,,
01-01-2011,18:00,25,R,ugm-3 (GRAV EQ),25,R,ugm-3,48,R,ugm-3,86,R,ugm-3,,,,,,,,,,,,,,,
01-01-2011,19:00,22,R,ugm-3 (GRAV EQ),26,R,ugm-3,50,R,ugm-3,90,R,ugm-3,,,,,,,,,,,,,,,
01-01-2011,20:00,23,R,ugm-3 (GRAV EQ),15,R,ugm-3,44,R,ugm-3,67,R,ugm-3,,,,,,,,,,,,,,,
01-01-2011,21:00,20,R,ugm-3 (GRAV EQ),20,R,ugm-3,48,R,ugm-3,78,R,ugm-3,,,,,,,,,,,,,,,
01-01-2011,22:00,16,R,ugm-3 (GRAV EQ),13,R,ugm-3,38,R,ugm-3,57,R,ugm-3,,,,,,,,,,,,,,,
01-01-2011,23:00,13,R,ugm-3 (GRAV EQ),10,R,ugm-3,32,R,ugm-3,48,R,ugm-3,,,,,,,,,,,,,,,
01-01-2011,24:00,12,R,ugm-3 (GRAV EQ),10,R,ugm-3,34,R,ugm-3,50,R,ugm-3,,,,,,,,,,,,,,,
02-01-2011,01:00,12,R,ugm-3 (GRAV EQ),15,R,ugm-3,38,R,ugm-3,61,R,ugm-3,,,,,,,,,,,,,,,
02-01-2011,02:00,9,R,ugm-3 (GRAV EQ),14,R,ugm-3,32,R,ugm-3,53,R,ugm-3,,,,,,,,,,,,,,,
02-01-2011,03:00,8,R,ugm-3 (GRAV EQ),10,R,ugm-3,25,R,ugm-3,40,R,ugm-3,,,,,,,,,,,,,,,
02-01-2011,04:00,7,R,ugm-3 (GRAV EQ),8,R,ugm-3,21,R,ugm-3,32,R,ugm-3,,,,,,,,,,,,,,,
02-01-2011,05:00,7,R,ugm-3 (GRAV EQ),8,R,ugm-3,21,R,ugm-3,32,R,ugm-3,,,,,,,,,,,,,,,
02-01-2011,06:00,7,R,ugm-3 (GRAV EQ),9,R,ugm-3,25,R,ugm-3,38,R,ugm-3,,,,,,,,,,,,,,,
02-01-2011,07:00,7,R,ugm-3 (GRAV EQ),10,R,ugm-3,27,R,ugm-3,42,R,ugm-3,,,,,,,,,,,,,,,
02-01-2011,08:00,8,R,ugm-3 (GRAV EQ),14,R,ugm-3,38,R,ugm-3,59,R,ugm-3,,,,,,,,,,,,,,,
02-01-2011,09:00,7,R,ugm-3 (GRAV EQ),15,R,ugm-3,42,R,ugm-3,65,R,ugm-3,,,,,,,,,,,,,,,
02-01-2011,10:00,10,R,ugm-3 (GRAV EQ),16,R,ugm-3,38,R,ugm-3,63,R,ugm-3,,,,,,,,,,,,,,,
02-01-2011,11:00,18,R,ugm-3 (GRAV EQ),29,R,ugm-3,46,R,ugm-3,90,R,ugm-3,,,,,,,,,,,,,,,
02-01-2011,12:00,35,R,ugm-3 (GRAV EQ),28,R,ugm-3,44,R,ugm-3,86,R,ugm-3,,,,,,,,,,,,,,,
02-01-2011,13:00,34,R,ugm-3 (GRAV EQ),20,R,ugm-3,40,R,ugm-3,71,R,ugm-3,,,,,,,,,,,,,,,
02-01-2011,14:00,46,R,ugm-3 (GRAV EQ),31,R,ugm-3,53,R,ugm-3,101,R,ugm-3,,,,,,,,,,,,,,,
02-01-2011,15:00,46,R,ugm-3 (GRAV EQ),33,R,ugm-3,53,R,ugm-3,103,R,ugm-3,,,,,,,,,,,,,,,
02-01-2011,16:00,52,R,ugm-3 (GRAV EQ),31,R,ugm-3,53,R,ugm-3,101,R,ugm-3,,,,,,,,,,,,,,,
02-01-2011,17:00,56,R,ugm-3 (GRAV EQ),59,R,ugm-3,69,R,ugm-3,159,R,ugm-3,,,,,,,,,,,,,,,
02-01-2011,18:00,57,R,ugm-3 (GRAV EQ),53,R,ugm-3,65,R,ugm-3,145,R,ugm-3,,,,,,,,,,,,,,,
02-01-2011,19:00,52,R,ugm-3 (GRAV EQ),44,R,ugm-3,69,R,ugm-3,136,R,ugm-3,,,,,,,,,,,,,,,
02-01-2011,20:00,39,R,ugm-3 (GRAV EQ),28,R,ugm-3,57,R,ugm-3,99,R,ugm-3,,,,,,,,,,,,,,,
02-01-2011,21:00,40,R,ugm-3 (GRAV EQ),33,R,ugm-3,63,R,ugm-3,113,R,ugm-3,,,,,,,,,,,,,,,
02-01-2011,22:00,34,R,ugm-3 (GRAV EQ),40,R,ugm-3,67,R,ugm-3,128,R,ugm-3,,,,,,,,,,,,,,,
02-01-2011,23:00,29,R,ugm-3 (GRAV EQ),25,R,ugm-3,57,R,ugm-3,96,R,ugm-3,,,,,,,,,,,,,,,
02-01-2011,24:00,23,R,ugm-3 (GRAV EQ),24,R,ugm-3,53,R,ugm-3,90,R,ugm-3,,,,,,,,,,,,,,,
03-01-2011,01:00,33,R,ugm-3 (GRAV EQ),26,R,ugm-3,53,R,ugm-3,94,R,ugm-3,,,,,,,,,,,,,,,
03-01-2011,02:00,25,R,ugm-3 (GRAV EQ),26,R,ugm-3,50,R,ugm-3,90,R,ugm-3,,,,,,,,,,,,,,,
03-01-2011,03:00,17,R,ugm-3 (GRAV EQ),24,R,ugm-3,53,R,ugm-3,90,R,ugm-3,,,,,,,,,,,,,,,
03-01-2011,04:00,25,R,ugm-3 (GRAV EQ),21,R,ugm-3,50,R,ugm-3,82,R,ugm-3,,,,,,,,,,,,,,,
03-01-2011,05:00,13,R,ugm-3 (GRAV EQ),24,R,ugm-3,52,R,ugm-3,88,R,ugm-3,,,,,,,,,,,,,,,
03-01-2011,06:00,25,R,ugm-3 (GRAV EQ),26,R,ugm-3,53,R,ugm-3,94,R,ugm-3,,,,,,,,,,,,,,,
03-01-2011,07:00,31,R,ugm-3 (GRAV EQ),31,R,ugm-3,57,R,ugm-3,105,R,ugm-3,,,,,,,,,,,,,,,
03-01-2011,08:00,55,R,ugm-3 (GRAV EQ),49,R,ugm-3,59,R,ugm-3,134,R,ugm-3,,,,,,,,,,,,,,,
03-01-2011,09:00,48,R,ugm-3 (GRAV EQ),46,R,ugm-3,59,R,ugm-3,130,R,ugm-3,,,,,,,,,,,,,,,
03-01-2011,10:00,64,R,ugm-3 (GRAV EQ),46,R,ugm-3,63,R,ugm-3,134,R,ugm-3,,,,,,,,,,,,,,,
03-01-2011,11:00,55,R,ugm-3 (GRAV EQ),49,R,ugm-3,69,R,ugm-3,143,R,ugm-3,,,,,,,,,,,,,,,
03-01-2011,12:00,51,R,ugm-3 (GRAV EQ),48,R,ugm-3,69,R,ugm-3,141,R,ugm-3,,,,,,,,,,,,,,,
03-01-2011,13:00,51,R,ugm-3 (GRAV EQ),48,R,ugm-3,76,R,ugm-3,149,R,ugm-3,,,,,,,,,,,,,,,
03-01-2011,14:00,48,R,ugm-3 (GRAV EQ),59,R,ugm-3,78,R,ugm-3,168,R,ugm-3,,,,,,,,,,,,,,,
03-01-2011,15:00,56,R,ugm-3 (GRAV EQ),60,R,ugm-3,80,R,ugm-3,172,R,ugm-3,,,,,,,,,,,,,,,
03-01-2011,16:00,70,R,ugm-3 (GRAV EQ),84,R,ugm-3,88,R,ugm-3,216,R,ugm-3,,,,,,,,,,,,,,,
03-01-2011,17:00,70,R,ugm-3 (GRAV EQ),128,R,ugm-3,92,R,ugm-3,287,R,ugm-3,,,,,,,,,,,,,,,
03-01-2011,18:00,81,R,ugm-3 (GRAV EQ),103,R,ugm-3,88,R,ugm-3,244,R,ugm-3,,,,,,,,,,,,,,,
03-01-2011,19:00,64,R,ugm-3 (GRAV EQ),70,R,ugm-3,78,R,ugm-3,185,R,ugm-3,,,,,,,,,,,,,,,
03-01-2011,20:00,40,R,ugm-3 (GRAV EQ),64,R,ugm-3,78,R,ugm-3,176,R,ugm-3,,,,,,,,,,,,,,,
03-01-2011,21:00,27,R,ugm-3 (GRAV EQ),49,R,ugm-3,71,R,ugm-3,145,R,ugm-3,,,,,,,,,,,,,,,
03-01-2011,22:00,23,R,ugm-3 (GRAV EQ),28,R,ugm-3,53,R,ugm-3,96,R,ugm-3,,,,,,,,,,,,,,,
03-01-2011,23:00,18,R,ugm-3 (GRAV EQ),20,R,ugm-3,40,R,ugm-3,71,R,ugm-3,,,,,,,,,,,,,,,
03-01-2011,24:00,16,R,ugm-3 (GRAV EQ),14,R,ugm-3,36,R,ugm-3,57,R,ugm-3,,,,,,,,,,,,,,,
04-01-2011,01:00,14,R,ugm-3 (GRAV EQ),11,R,ugm-3,42,R,ugm-3,59,R,ugm-3,,,,,,,,,,,,,,,
04-01-2011,02:00,17,R,ugm-3 (GRAV EQ),13,R,ugm-3,46,R,ugm-3,65,R,ugm-3,,,,,,,,,,,,,,,
04-01-2011,03:00,17,R,ugm-3 (GRAV EQ),19,R,ugm-3,50,R,ugm-3,78,R,ugm-3,,,,,,,,,,,,,,,
04-01-2011,04:00,14,R,ugm-3 (GRAV EQ),14,R,ugm-3,46,R,ugm-3,67,R,ugm-3,,,,,,,,,,,,,,,
04-01-2011,05:00,13,R,ugm-3 (GRAV EQ),14,R,ugm-3,46,R,ugm-3,67,R,ugm-3,,,,,,,,,,,,,,,
04-01-2011,06:00,10,R,ugm-3 (GRAV EQ),16,R,ugm-3,46,R,ugm-3,71,R,ugm-3,,,,,,,,,,,,,,,
04-01-2011,07:00,12,R,ugm-3 (GRAV EQ),18,R,ugm-3,48,R,ugm-3,74,R,ugm-3,,,,,,,,,,,,,,,
04-01-2011,08:00,14,R,ugm-3 (GRAV EQ),36,R,ugm-3,59,R,ugm-3,115,R,ugm-3,,,,,,,,,,,,,,,
04-01-2011,09:00,12,R,ugm-3 (GRAV EQ),61,R,ugm-3,74,R,ugm-3,168,R,ugm-3,,,,,,,,,,,,,,,
04-01-2011,10:00,17,R,ugm-3 (GRAV EQ),98,R,ugm-3,84,R,ugm-3,233,R,ugm-3,,,,,,,,,,,,,,,
04-01-2011,11:00,23,R,ugm-3 (GRAV EQ),116,R,ugm-3,82,R,ugm-3,260,R,ugm-3,,,,,,,,,,,,,,,
04-01-2011,12:00,21,R,ugm-3 (GRAV EQ),100,R,ugm-3,76,R,ugm-3,229,R,ugm-3,,,,,,,,,,,,,,,
04-01-2011,13:00,17,R,ugm-3 (GRAV EQ),83,R,ugm-3,74,R,ugm-3,201,R,ugm-3,,,,,,,,,,,,,,,
04-01-2011,14:00,20,R,ugm-3 (GRAV EQ),83,R,ugm-3,76,R,ugm-3,202,R,ugm-3,,,,,,,,,,,,,,,
04-01-2011,15:00,23,R,ugm-3 (GRAV EQ),95,R,ugm-3,80,R,ugm-3,225,R,ugm-3,,,,,,,,,,,,,,,
04-01-2011,16:00,25,R,ugm-3 (GRAV EQ),128,R,ugm-3,82,R,ugm-3,277,R,ugm-3,,,,,,,,,,,,,,,
04-01-2011,17:00,26,R,ugm-3 (GRAV EQ),165,R,ugm-3,86,R,ugm-3,338,R,ugm-3,,,,,,,,,,,,,,,
04-01-2011,18:00,23,R,ugm-3 (GRAV EQ),105,R,ugm-3,76,R,ugm-3,237,R,ugm-3,,,,,,,,,,,,,,,
04-01-2011,19:00,26,R,ugm-3 (GRAV EQ),98,R,ugm-3,76,R,ugm-3,225,R,ugm-3,,,,,,,,,,,,,,,
04-01-2011,20:00,22,R,ugm-3 (GRAV EQ),54,R,ugm-3,61,R,ugm-3,143,R,ugm-3,,,,,,,,,,,,,,,
04-01-2011,21:00,25,R,ugm-3 (GRAV EQ),39,R,ugm-3,57,R,ugm-3,117,R,ugm-3,,,,,,,,,,,,,,,
04-01-2011,22:00,21,R,ugm-3 (GRAV EQ),29,R,ugm-3,52,R,ugm-3,96,R,ugm-3,,,,,,,,,,,,,,,
04-01-2011,23:00,17,R,ugm-3 (GRAV EQ),24,R,ugm-3,46,R,ugm-3,82,R,ugm-3,,,,,,,,,,,,,,,
04-01-2011,24:00,16,R,ugm-3 (GRAV EQ),21,R,ugm-3,44,R,ugm-3,76,R,ugm-3,,,,,,,,,,,,,,,
05-01-2011,01:00,12,R,ugm-3 (GRAV EQ),24,R,ugm-3,42,R,ugm-3,78,R,ugm-3,,,,,,,,,,,,,,,
05-01-2011,02:00,8,R,ugm-3 (GRAV EQ),14,R,ugm-3,34,R,ugm-3,55,R,ugm-3,,,,,,,,,,,,,,,
05-01-2011,03:00,5,R,ugm-3 (GRAV EQ),15,R,ugm-3,36,R,ugm-3,59,R,ugm-3,,,,,,,,,,,,,,,
05-01-2011,04:00,7,R,ugm-3 (GRAV EQ),11,R,ugm-3,38,R,ugm-3,55,R,ugm-3,,,,,,,,,,,,,,,
05-01-2011,05:00,8,R,ugm-3 (GRAV EQ),13,R,ugm-3,36,R,ugm-3,55,R,ugm-3,,,,,,,,,,,,,,,
05-01-2011,06:00,9,R,ugm-3 (GRAV EQ),18,R,ugm-3,40,R,ugm-3,67,R,ugm-3,,,,,,,,,,,,,,,
05-01-2011,07:00,10,R,ugm-3 (GRAV EQ),38,R,ugm-3,59,R,ugm-3,117,R,ugm-3,,,,,,,,,,,,,,,
05-01-2011,08:00,7,R,ugm-3 (GRAV EQ),60,R,ugm-3,69,R,ugm-3,160,R,ugm-3,,,,,,,,,,,,,,,
05-01-2011,09:00,10,R,ugm-3 (GRAV EQ),104,R,ugm-3,78,R,ugm-3,237,R,ugm-3,,,,,,,,,,,,,,,
05-01-2011,10:00,8,R,ugm-3 (GRAV EQ),79,R,ugm-3,71,R,ugm-3,191,R,ugm-3,,,,,,,,,,,,,,,
05-01-2011,11:00,9,R,ugm-3 (GRAV EQ),76,R,ugm-3,74,R,ugm-3,191,R,ugm-3,,,,,,,,,,,,,,,
05-01-2011,12:00,10,R,ugm-3 (GRAV EQ),73,R,ugm-3,76,R,ugm-3,187,R,ugm-3,,,,,,,,,,,,,,,
05-01-2011,13:00,9,R,ugm-3 (GRAV EQ),86,R,ugm-3,82,R,ugm-3,214,R,ugm-3,,,,,,,,,,,,,,,
05-01-2011,14:00,12,R,ugm-3 (GRAV EQ),66,R,ugm-3,73,R,ugm-3,174,R,ugm-3,,,,,,,,,,,,,,,
05-01-2011,15:00,14,R,ugm-3 (GRAV EQ),68,R,ugm-3,69,R,ugm-3,172,R,ugm-3,,,,,,,,,,,,,,,
05-01-2011,16:00,18,R,ugm-3 (GRAV EQ),90,R,ugm-3,74,R,ugm-3,212,R,ugm-3,,,,,,,,,,,,,,,
05-01-2011,17:00,22,R,ugm-3 (GRAV EQ),118,R,ugm-3,78,R,ugm-3,258,R,ugm-3,,,,,,,,,,,,,,,
05-01-2011,18:00,23,R,ugm-3 (GRAV EQ),125,R,ugm-3,76,R,ugm-3,267,R,ugm-3,,,,,,,,,,,,,,,
05-01-2011,19:00,25,R,ugm-3 (GRAV EQ),116,R,ugm-3,74,R,ugm-3,252,R,ugm-3,,,,,,,,,,,,,,,
05-01-2011,20:00,18,R,ugm-3 (GRAV EQ),68,R,ugm-3,69,R,ugm-3,172,R,ugm-3,,,,,,,,,,,,,,,
05-01-2011,21:00,20,R,ugm-3 (GRAV EQ),80,R,ugm-3,76,R,ugm-3,199,R,ugm-3,,,,,,,,,,,,,,,
05-01-2011,22:00,18,R,ugm-3 (GRAV EQ),49,R,ugm-3,67,R,ugm-3,141,R,ugm-3,,,,,,,,,,,,,,,
05-01-2011,23:00,16,R,ugm-3 (GRAV EQ),53,R,ugm-3,67,R,ugm-3,147,R,ugm-3,,,,,,,,,,,,,,,
05-01-2011,24:00,12,R,ugm-3 (GRAV EQ),40,R,ugm-3,63,R,ugm-3,124,R,ugm-3,,,,,,,,,,,,,,,
06-01-2011,01:00,9,R,ugm-3 (GRAV EQ),34,R,ugm-3,59,R,ugm-3,111,R,ugm-3,,,,,,,,,,,,,,,
06-01-2011,02:00,8,R,ugm-3 (GRAV EQ),25,R,ugm-3,53,R,ugm-3,92,R,ugm-3,,,,,,,,,,,,,,,
06-01-2011,03:00,7,R,ugm-3 (GRAV EQ),21,R,ugm-3,50,R,ugm-3,82,R,ugm-3,,,,,,,,,,,,,,,
06-01-2011,04:00,5,R,ugm-3 (GRAV EQ),24,R,ugm-3,52,R,ugm-3,88,R,ugm-3,,,,,,,,,,,,,,,
06-01-2011,05:00,5,R,ugm-3 (GRAV EQ),33,R,ugm-3,57,R,ugm-3,107,R,ugm-3,,,,,,,,,,,,,,,
06-01-2011,06:00,8,R,ugm-3 (GRAV EQ),45,R,ugm-3,59,R,ugm-3,128,R,ugm-3,,,,,,,,,,,,,,,
06-01-2011,07:00,12,R,ugm-3 (GRAV EQ),45,R,ugm-3,59,R,ugm-3,128,R,ugm-3,,,,,,,,,,,,,,,
06-01-2011,08:00,21,R,ugm-3 (GRAV EQ),134,R,ugm-3,86,R,ugm-3,290,R,ugm-3,,,,,,,,,,,,,,,
06-01-2011,09:00,30,R,ugm-3 (GRAV EQ),241,R,ugm-3,105,R,ugm-3,474,R,ugm-3,,,,,,,,,,,,,,,
06-01-2011,10:00,30,R,ugm-3 (GRAV EQ),254,R,ugm-3,99,R,ugm-3,487,R,ugm-3,,,,,,,,,,,,,,,
06-01-2011,11:00,34,R,ugm-3 (GRAV EQ),238,R,ugm-3,103,R,ugm-3,466,R,ugm-3,,,,,,,,,,,,,,,
06-01-2011,12:00,36,R,ugm-3 (GRAV EQ),218,R,ugm-3,101,R,ugm-3,434,R,ugm-3,,,,,,,,,,,,,,,
06-01-2011,13:00,26,R,ugm-3 (GRAV EQ),128,R,ugm-3,86,R,ugm-3,281,R,ugm-3,,,,,,,,,,,,,,,
06-01-2011,14:00,34,R,ugm-3 (GRAV EQ),125,R,ugm-3,84,R,ugm-3,275,R,ugm-3,,,,,,,,,,,,,,,
06-01-2011,15:00,36,R,ugm-3 (GRAV EQ),118,R,ugm-3,80,R,ugm-3,260,R,ugm-3,,,,,,,,,,,,,,,
06-01-2011,16:00,33,R,ugm-3 (GRAV EQ),119,R,ugm-3,86,R,ugm-3,267,R,ugm-3,,,,,,,,,,,,,,,
06-01-2011,17:00,23,R,ugm-3 (GRAV EQ),89,R,ugm-3,76,R,ugm-3,212,R,ugm-3,,,,,,,,,,,,,,,
06-01-2011,18:00,18,R,ugm-3 (GRAV EQ),71,R,ugm-3,76,R,ugm-3,185,R,ugm-3,,,,,,,,,,,,,,,
06-01-2011,19:00,18,R,ugm-3 (GRAV EQ),56,R,ugm-3,67,R,ugm-3,153,R,ugm-3,,,,,,,,,,,,,,,
06-01-2011,20:00,23,R,ugm-3 (GRAV EQ),60,R,ugm-3,73,R,ugm-3,164,R,ugm-3,,,,,,,,,,,,,,,
06-01-2011,21:00,21,R,ugm-3 (GRAV EQ),64,R,ugm-3,73,R,ugm-3,170,R,ugm-3,,,,,,,,,,,,,,,
06-01-2011,22:00,18,R,ugm-3 (GRAV EQ),59,R,ugm-3,73,R,ugm-3,162,R,ugm-3,,,,,,,,,,,,,,,
06-01-2011,23:00,22,R,ugm-3 (GRAV EQ),54,R,ugm-3,73,R,ugm-3,155,R,ugm-3,,,,,,,,,,,,,,,
06-01-2011,24:00,21,R,ugm-3 (GRAV EQ),50,R,ugm-3,69,R,ugm-3,145,R,ugm-3,,,,,,,,,,,,,,,
07-01-2011,01:00,21,R,ugm-3 (GRAV EQ),29,R,ugm-3,53,R,ugm-3,97,R,ugm-3,,,,,,,,,,,,,,,
07-01-2011,02:00,20,R,ugm-3 (GRAV EQ),29,R,ugm-3,53,R,ugm-3,97,R,ugm-3,,,,,,,,,,,,,,,
07-01-2011,03:00,20,R,ugm-3 (GRAV EQ),29,R,ugm-3,53,R,ugm-3,97,R,ugm-3,,,,,,,,,,,,,,,
07-01-2011,04:00,20,R,ugm-3 (GRAV EQ),33,R,ugm-3,52,R,ugm-3,101,R,ugm-3,,,,,,,,,,,,,,,
07-01-2011,05:00,17,R,ugm-3 (GRAV EQ),43,R,ugm-3,55,R,ugm-3,120,R,ugm-3,,,,,,,,,,,,,,,
07-01-2011,06:00,14,R,ugm-3 (GRAV EQ),35,R,ugm-3,53,R,ugm-3,107,R,ugm-3,,,,,,,,,,,,,,,
07-01-2011,07:00,17,R,ugm-3 (GRAV EQ),54,R,ugm-3,57,R,ugm-3,139,R,ugm-3,,,,,,,,,,,,,,,
07-01-2011,08:00,18,R,ugm-3 (GRAV EQ),75,R,ugm-3,67,R,ugm-3,181,R,ugm-3,,,,,,,,,,,,,,,
07-01-2011,09:00,21,R,ugm-3 (GRAV EQ),114,R,ugm-3,82,R,ugm-3,256,R,ugm-3,,,,,,,,,,,,,,,
07-01-2011,10:00,25,R,ugm-3 (GRAV EQ),118,R,ugm-3,84,R,ugm-3,264,R,ugm-3,,,,,,,,,,,,,,,
07-01-2011,11:00,30,R,ugm-3 (GRAV EQ),126,R,ugm-3,88,R,ugm-3,281,R,ugm-3,,,,,,,,,,,,,,,
07-01-2011,12:00,22,R,ugm-3 (GRAV EQ),78,R,ugm-3,76,R,ugm-3,195,R,ugm-3,,,,,,,,,,,,,,,
07-01-2011,13:00,14,R,ugm-3 (GRAV EQ),54,R,ugm-3,76,R,ugm-3,159,R,ugm-3,,,,,,,,,,,,,,,
07-01-2011,14:00,16,R,ugm-3 (GRAV EQ),68,R,ugm-3,82,R,ugm-3,185,R,ugm-3,,,,,,,,,,,,,,,
07-01-2011,15:00,17,R,ugm-3 (GRAV EQ),80,R,ugm-3,86,R,ugm-3,208,R,ugm-3,,,,,,,,,,,,,,,
07-01-2011,16:00,16,R,ugm-3 (GRAV EQ),81,R,ugm-3,82,R,ugm-3,206,R,ugm-3,,,,,,,,,,,,,,,
07-01-2011,17:00,17,R,ugm-3 (GRAV EQ),96,R,ugm-3,84,R,ugm-3,231,R,ugm-3,,,,,,,,,,,,,,,
07-01-2011,18:00,10,R,ugm-3 (GRAV EQ),51,R,ugm-3,63,R,ugm-3,141,R,ugm-3,,,,,,,,,,,,,,,
07-01-2011,19:00,14,R,ugm-3 (GRAV EQ),71,R,ugm-3,69,R,ugm-3,178,R,ugm-3,,,,,,,,,,,,,,,
07-01-2011,20:00,17,R,ugm-3 (GRAV EQ),79,R,ugm-3,69,R,ugm-3,189,R,ugm-3,,,,,,,,,,,,,,,
07-01-2011,21:00,23,R,ugm-3 (GRAV EQ),76,R,ugm-3,69,R,ugm-3,185,R,ugm-3,,,,,,,,,,,,,,,
07-01-2011,22:00,18,R,ugm-3 (GRAV EQ),75,R,ugm-3,63,R,ugm-3,178,R,ugm-3,,,,,,,,,,,,,,,
07-01-2011,23:00,18,R,ugm-3 (GRAV EQ),49,R,ugm-3,53,R,ugm-3,128,R,ugm-3,,,,,,,,,,,,,,,
07-01-2011,24:00,21,R,ugm-3 (GRAV EQ),46,R,ugm-3,61,R,ugm-3,132,R,ugm-3,,,,,,,,,,,,,,,
08-01-2011,01:00,13,R,ugm-3 (GRAV EQ),48,R,ugm-3,61,R,ugm-3,134,R,ugm-3,,,,,,,,,,,,,,,
08-01-2011,02:00,13,R,ugm-3 (GRAV EQ),51,R,ugm-3,61,R,ugm-3,139,R,ugm-3,,,,,,,,,,,,,,,
08-01-2011,03:00,20,R,ugm-3 (GRAV EQ),28,R,ugm-3,48,R,ugm-3,90,R,ugm-3,,,,,,,,,,,,,,,
08-01-2011,04:00,21,R,ugm-3 (GRAV EQ),38,R,ugm-3,50,R,ugm-3,107,R,ugm-3,,,,,,,,,,,,,,,
08-01-2011,05:00,17,R,ugm-3 (GRAV EQ),30,R,ugm-3,42,R,ugm-3,88,R,ugm-3,,,,,,,,,,,,,,,
08-01-2011,06:00,14,R,ugm-3 (GRAV EQ),35,R,ugm-3,46,R,ugm-3,99,R,ugm-3,,,,,,,,,,,,,,,
08-01-2011,07:00,10,R,ugm-3 (GRAV EQ),50,R,ugm-3,52,R,ugm-3,128,R,ugm-3,,,,,,,,,,,,,,,
08-01-2011,08:00,12,R,ugm-3 (GRAV EQ),69,R,ugm-3,59,R,ugm-3,164,R,ugm-3,,,,,,,,,,,,,,,
08-01-2011,09:00,21,R,ugm-3 (GRAV EQ),171,R,ugm-3,78,R,ugm-3,340,R,ugm-3,,,,,,,,,,,,,,,
08-01-2011,10:00,13,R,ugm-3 (GRAV EQ),79,R,ugm-3,57,R,ugm-3,178,R,ugm-3,,,,,,,,,,,,,,,
08-01-2011,11:00,10,R,ugm-3 (GRAV EQ),51,R,ugm-3,46,R,ugm-3,124,R,ugm-3,,,,,,,,,,,,,,,
08-01-2011,12:00,14,R,ugm-3 (GRAV EQ),81,R,ugm-3,55,R,ugm-3,180,R,ugm-3,,,,,,,,,,,,,,,
08-01-2011,13:00,9,R,ugm-3 (GRAV EQ),60,R,ugm-3,55,R,ugm-3,147,R,ugm-3,,,,,,,,,,,,,,,
08-01-2011,14:00,16,R,ugm-3 (GRAV EQ),39,R,ugm-3,53,R,ugm-3,113,R,ugm-3,,,,,,,,,,,,,,,
08-01-2011,15:00,25,R,ugm-3 (GRAV EQ),51,R,ugm-3,67,R,ugm-3,145,R,ugm-3,,,,,,,,,,,,,,,
08-01-2011,16:00,33,R,ugm-3 (GRAV EQ),73,R,ugm-3,78,R,ugm-3,189,R,ugm-3,,,,,,,,,,,,,,,
08-01-2011,17:00,25,R,ugm-3 (GRAV EQ),95,R,ugm-3,84,R,ugm-3,229,R,ugm-3,,,,,,,,,,,,,,,
08-01-2011,18:00,25,R,ugm-3 (GRAV EQ),103,R,ugm-3,84,R,ugm-3,241,R,ugm-3,,,,,,,,,,,,,,,
08-01-2011,19:00,20,R,ugm-3 (GRAV EQ),94,R,ugm-3,82,R,ugm-3,225,R,ugm-3,,,,,,,,,,,,,,,
08-01-2011,20:00,16,R,ugm-3 (GRAV EQ),43,R,ugm-3,61,R,ugm-3,126,R,ugm-3,,,,,,,,,,,,,,,
08-01-2011,21:00,20,R,ugm-3 (GRAV EQ),41,R,ugm-3,69,R,ugm-3,132,R,ugm-3,,,,,,,,,,,,,,,
08-01-2011,22:00,18,R,ugm-3 (GRAV EQ),50,R,ugm-3,67,R,ugm-3,143,R,ugm-3,,,,,,,,,,,,,,,
08-01-2011,23:00,13,R,ugm-3 (GRAV EQ),35,R,ugm-3,53,R,ugm-3,107,R,ugm-3,,,,,,,,,,,,,,,
08-01-2011,24:00,10,R,ugm-3 (GRAV EQ),41,R,ugm-3,57,R,ugm-3,120,R,ugm-3,,,,,,,,,,,,,,,
09-01-2011,01:00,9,R,ugm-3 (GRAV EQ),19,R,ugm-3,44,R,ugm-3,73,R,ugm-3,,,,,,,,,,,,,,,
09-01-2011,02:00,13,R,ugm-3 (GRAV EQ),13,R,ugm-3,42,R,ugm-3,61,R,ugm-3,,,,,,,,,,,,,,,
09-01-2011,03:00,9,R,ugm-3 (GRAV EQ),9,R,ugm-3,34,R,ugm-3,48,R,ugm-3,,,,,,,,,,,,,,,
09-01-2011,04:00,9,R,ugm-3 (GRAV EQ),11,R,ugm-3,46,R,ugm-3,63,R,ugm-3,,,,,,,,,,,,,,,
09-01-2011,05:00,10,R,ugm-3 (GRAV EQ),10,R,ugm-3,40,R,ugm-3,55,R,ugm-3,,,,,,,,,,,,,,,
09-01-2011,06:00,13,R,ugm-3 (GRAV EQ),9,R,ugm-3,34,R,ugm-3,48,R,ugm-3,,,,,,,,,,,,,,,
09-01-2011,07:00,16,R,ugm-3 (GRAV EQ),8,R,ugm-3,32,R,ugm-3,44,R,ugm-3,,,,,,,,,,,,,,,
09-01-2011,08:00,20,R,ugm-3 (GRAV EQ),5,R,ugm-3,29,R,ugm-3,36,R,ugm-3,,,,,,,,,,,,,,,
09-01-2011,09:00,13,R,ugm-3 (GRAV EQ),8,R,ugm-3,32,R,ugm-3,44,R,ugm-3,,,,,,,,,,,,,,,
09-01-2011,10:00,12,R,ugm-3 (GRAV EQ),11,R,ugm-3,44,R,ugm-3,61,R,ugm-3,,,,,,,,,,,,,,,
09-01-2011,11:00,14,R,ugm-3 (GRAV EQ),14,R,ugm-3,46,R,ugm-3,67,R,ugm-3,,,,,,,,,,,,,,,
09-01-2011,12:00,18,R,ugm-3 (GRAV EQ),13,R,ugm-3,42,R,ugm-3,61,R,ugm-3,,,,,,,,,,,,,,,
09-01-2011,13:00,26,R,ugm-3 (GRAV EQ),19,R,ugm-3,52,R,ugm-3,80,R,ugm-3,,,,,,,,,,,,,,,
09-01-2011,14:00,34,R,ugm-3 (GRAV EQ),14,R,ugm-3,46,R,ugm-3,67,R,ugm-3,,,,,,,,,,,,,,,
09-01-2011,15:00,21,R,ugm-3 (GRAV EQ),16,R,ugm-3,48,R,ugm-3,73,R,ugm-3,,,,,,,,,,,,,,,
09-01-2011,16:00,22,R,ugm-3 (GRAV EQ),30,R,ugm-3,59,R,ugm-3,105,R,ugm-3,,,,,,,,,,,,,,,
09-01-2011,17:00,23,R,ugm-3 (GRAV EQ),36,R,ugm-3,65,R,ugm-3,120,R,ugm-3,,,,,,,,,,,,,,,
09-01-2011,18:00,27,R,ugm-3 (GRAV EQ),56,R,ugm-3,73,R,ugm-3,159,R,ugm-3,,,,,,,,,,,,,,,
09-01-2011,19:00,27,R,ugm-3 (GRAV EQ),65,R,ugm-3,76,R,ugm-3,176,R,ugm-3,,,,,,,,,,,,,,,
09-01-2011,20:00,39,R,ugm-3 (GRAV EQ),60,R,ugm-3,73,R,ugm-3,164,R,ugm-3,,,,,,,,,,,,,,,
09-01-2011,21:00,36,R,ugm-3 (GRAV EQ),64,R,ugm-3,71,R,ugm-3,168,R,ugm-3,,,,,,,,,,,,,,,
09-01-2011,22:00,33,R,ugm-3 (GRAV EQ),60,R,ugm-3,69,R,ugm-3,160,R,ugm-3,,,,,,,,,,,,,,,
09-01-2011,23:00,27,R,ugm-3 (GRAV EQ),49,R,ugm-3,59,R,ugm-3,134,R,ugm-3,,,,,,,,,,,,,,,
09-01-2011,24:00,21,R,ugm-3 (GRAV EQ),31,R,ugm-3,52,R,ugm-3,99,R,ugm-3,,,,,,,,,,,,,,,
10-01-2011,01:00,21,R,ugm-3 (GRAV EQ),35,R,ugm-3,57,R,ugm-3,111,R,ugm-3,,,,,,,,,,,,,,,
10-01-2011,02:00,18,R,ugm-3 (GRAV EQ),31,R,ugm-3,50,R,ugm-3,97,R,ugm-3,,,,,,,,,,,,,,,
10-01-2011,03:00,17,R,ugm-3 (GRAV EQ),35,R,ugm-3,53,R,ugm-3,107,R,ugm-3,,,,,,,,,,,,,,,
10-01-2011,04:00,16,R,ugm-3 (GRAV EQ),21,R,ugm-3,40,R,ugm-3,73,R,ugm-3,,,,,,,,,,,,,,,
10-01-2011,05:00,14,R,ugm-3 (GRAV EQ),18,R,ugm-3,38,R,ugm-3,65,R,ugm-3,,,,,,,,,,,,,,,
10-01-2011,06:00,17,R,ugm-3 (GRAV EQ),18,R,ugm-3,40,R,ugm-3,67,R,ugm-3,,,,,,,,,,,,,,,
10-01-2011,07:00,16,R,ugm-3 (GRAV EQ),29,R,ugm-3,46,R,ugm-3,90,R,ugm-3,,,,,,,,,,,,,,,
10-01-2011,08:00,17,R,ugm-3 (GRAV EQ),60,R,ugm-3,57,R,ugm-3,149,R,ugm-3,,,,,,,,,,,,,,,
10-01-2011,09:00,17,R,ugm-3 (GRAV EQ),73,R,ugm-3,61,R,ugm-3,172,R,ugm-3,,,,,,,,,,,,,,,
10-01-2011,10:00,16,R,ugm-3 (GRAV EQ),48,R,ugm-3,52,R,ugm-3,124,R,ugm-3,,,,,,,,,,,,,,,
10-01-2011,11:00,14,R,ugm-3 (GRAV EQ),34,R,ugm-3,50,R,ugm-3,101,R,ugm-3,,,,,,,,,,,,,,,
10-01-2011,12:00,16,R,ugm-3 (GRAV EQ),46,R,ugm-3,57,R,ugm-3,128,R,ugm-3,,,,,,,,,,,,,,,
10-01-2011,13:00,18,R,ugm-3 (GRAV EQ),49,R,ugm-3,67,R,ugm-3,141,R,ugm-3,,,,,,,,,,,,,,,
10-01-2011,14:00,21,R,ugm-3 (GRAV EQ),59,R,ugm-3,73,R,ugm-3,162,R,ugm-3,,,,,,,,,,,,,,,
10-01-2011,15:00,20,R,ugm-3 (GRAV EQ),50,R,ugm-3,69,R,ugm-3,145,R,ugm-3,,,,,,,,,,,,,,,
10-01-2011,16:00,18,R,ugm-3 (GRAV EQ),63,R,ugm-3,71,R,ugm-3,166,R,ugm-3,,,,,,,,,,,,,,,
10-01-2011,17:00,17,R,ugm-3 (GRAV EQ),55,R,ugm-3,69,R,ugm-3,153,R,ugm-3,,,,,,,,,,,,,,,
10-01-2011,18:00,18,R,ugm-3 (GRAV EQ),120,R,ugm-3,80,R,ugm-3,264,R,ugm-3,,,,,,,,,,,,,,,
10-01-2011,19:00,16,R,ugm-3 (GRAV EQ),43,R,ugm-3,52,R,ugm-3,117,R,ugm-3,,,,,,,,,,,,,,,
10-01-2011,20:00,12,R,ugm-3 (GRAV EQ),14,R,ugm-3,36,R,ugm-3,57,R,ugm-3,,,,,,,,,,,,,,,
10-01-2011,21:00,10,R,ugm-3 (GRAV EQ),6,R,ugm-3,32,R,ugm-3,42,R,ugm-3,,,,,,,,,,,,,,,
10-01-2011,22:00,12,R,ugm-3 (GRAV EQ),11,R,ugm-3,36,R,ugm-3,53,R,ugm-3,,,,,,,,,,,,,,,
10-01-2011,23:00,9,R,ugm-3 (GRAV EQ),6,R,ugm-3,29,R,ugm-3,38,R,ugm-3,,,,,,,,,,,,,,,
10-01-2011,24:00,9,R,ugm-3 (GRAV EQ),5,R,ugm-3,25,R,ugm-3,32,R,ugm-3,,,,,,,,,,,,,,,
11-01-2011,01:00,7,R,ugm-3 (GRAV EQ),5,R,ugm-3,23,R,ugm-3,31,R,ugm-3,,,,,,,,,,,,,,,
11-01-2011,02:00,7,R,ugm-3 (GRAV EQ),9,R,ugm-3,27,R,ugm-3,40,R,ugm-3,,,,,,,,,,,,,,,
11-01-2011,03:00,5,R,ugm-3 (GRAV EQ),9,R,ugm-3,27,R,ugm-3,40,R,ugm-3,,,,,,,,,,,,,,,
11-01-2011,04:00,7,R,ugm-3 (GRAV EQ),13,R,ugm-3,29,R,ugm-3,48,R,ugm-3,,,,,,,,,,,,,,,
11-01-2011,05:00,7,R,ugm-3 (GRAV EQ),23,R,ugm-3,36,R,ugm-3,71,R,ugm-3,,,,,,,,,,,,,,,
11-01-2011,06:00,8,R,ugm-3 (GRAV EQ),33,R,ugm-3,46,R,ugm-3,96,R,ugm-3,,,,,,,,,,,,,,,
11-01-2011,07:00,12,R,ugm-3 (GRAV EQ),63,R,ugm-3,57,R,ugm-3,153,R,ugm-3,,,,,,,,,,,,,,,
11-01-2011,08:00,25,R,ugm-3 (GRAV EQ),141,R,ugm-3,74,R,ugm-3,290,R,ugm-3,,,,,,,,,,,,,,,
11-01-2011,09:00,14,R,ugm-3 (GRAV EQ),89,R,ugm-3,61,R,ugm-3,197,R,ugm-3,,,,,,,,,,,,,,,
11-01-2011,10:00,9,R,ugm-3 (GRAV EQ),30,R,ugm-3,36,R,ugm-3,82,R,ugm-3,,,,,,,,,,,,,,,
11-01-2011,11:00,10,R,ugm-3 (GRAV EQ),25,R,ugm-3,38,R,ugm-3,76,R,ugm-3,,,,,,,,,,,,,,,
11-01-2011,12:00,12,R,ugm-3 (GRAV EQ),21,R,ugm-3,32,R,ugm-3,65,R,ugm-3,,,,,,,,,,,,,,,
11-01-2011,13:00,13,R,ugm-3 (GRAV EQ),30,R,ugm-3,40,R,ugm-3,86,R,ugm-3,,,,,,,,,,,,,,,
11-01-2011,14:00,16,R,ugm-3 (GRAV EQ),23,R,ugm-3,40,R,ugm-3,74,R,ugm-3,,,,,,,,,,,,,,,
11-01-2011,15:00,29,R,ugm-3 (GRAV EQ),25,R,ugm-3,42,R,ugm-3,80,R,ugm-3,,,,,,,,,,,,,,,
11-01-2011,16:00,31,R,ugm-3 (GRAV EQ),26,R,ugm-3,46,R,ugm-3,86,R,ugm-3,,,,,,,,,,,,,,,
11-01-2011,17:00,43,R,ugm-3 (GRAV EQ),65,R,ugm-3,69,R,ugm-3,168,R,ugm-3,,,,,,,,,,,,,,,
11-01-2011,18:00,31,R,ugm-3 (GRAV EQ),131,R,ugm-3,90,R,ugm-3,290,R,ugm-3,,,,,,,,,,,,,,,
11-01-2011,19:00,30,R,ugm-3 (GRAV EQ),163,R,ugm-3,94,R,ugm-3,342,R,ugm-3,,,,,,,,,,,,,,,
11-01-2011,20:00,31,R,ugm-3 (GRAV EQ),180,R,ugm-3,96,R,ugm-3,371,R,ugm-3,,,,,,,,,,,,,,,
11-01-2011,21:00,33,R,ugm-3 (GRAV EQ),153,R,ugm-3,92,R,ugm-3,325,R,ugm-3,,,,,,,,,,,,,,,
11-01-2011,22:00,30,R,ugm-3 (GRAV EQ),120,R,ugm-3,86,R,ugm-3,269,R,ugm-3,,,,,,,,,,,,,,,
11-01-2011,23:00,27,R,ugm-3 (GRAV EQ),85,R,ugm-3,76,R,ugm-3,206,R,ugm-3,,,,,,,,,,,,,,,
11-01-2011,24:00,20,R,ugm-3 (GRAV EQ),71,R,ugm-3,74,R,ugm-3,183,R,ugm-3,,,,,,,,,,,,,,,
12-01-2011,01:00,20,R,ugm-3 (GRAV EQ),45,R,ugm-3,63,R,ugm-3,132,R,ugm-3,,,,,,,,,,,,,,,
12-01-2011,02:00,16,R,ugm-3 (GRAV EQ),24,R,ugm-3,50,R,ugm-3,86,R,ugm-3,,,,,,,,,,,,,,,
12-01-2011,03:00,16,R,ugm-3 (GRAV EQ),19,R,ugm-3,40,R,ugm-3,69,R,ugm-3,,,,,,,,,,,,,,,
12-01-2011,04:00,16,R,ugm-3 (GRAV EQ),18,R,ugm-3,42,R,ugm-3,69,R,ugm-3,,,,,,,,,,,,,,,